Temp
-9 -10 -9 -9 -9 -9 -13 -14 -14 -15 -15 -15 -15 -15 -14 -14 -14 -13 -13 -13 -13 -12 -12 -12 -9 -13 -12 -12 -12 -11 -11 -11 -11 -11 -10 -10 -10 -10 -10 -10 -9 -9 -9 -9 -9 -9 -10 -10 -10
-10 -10 -9 -9 -9 -11 -13 -14 -15 -16 -15 -15 -14 -14 -14 -14 -14 -14 -13 -12 -12 -12 -11 -12 -12 -12 -12 -12 -11 -11 -11 -11 -11 -11 -11 -11 -11 -11 -10 -10 -10 -10 -10 -10 -10 -10 -10 -10 -10
-10 -10 -9 -10 -10 -13 -14 -15 -16 -16 -16 -15 -15 -14 -14 -14 -14 -14 -14 -13 -12 -13 -11 -12 -11 -11 -12 -12 -12 -12 -12 -12 -12 -12 -12 -12 -11 -11 -11 -10 -10 -10 -10 -11 -11 -11 -11 -11 -11
-10 -10 -10 -10 -12 -13 -15 -16 -16 -16 -15 -15 -14 -14 -14 -13 -13 -14 -14 -14 -13 -12 -12 -11 -11 -12 -12 -12 -12 -12 -11 -13 -12 -12 -12 -12 -11 -11 -11 -10 -10 -11 -10 -11 -11 -11 -11 -11 -11
-10 -10 -9 -10 -11 -15 -15 -16 -16 -16 -16 -15 -15 -15 -14 -14 -13 -13 -13 -14 -12 -12 -13 -12 -11 -12 -12 -12 -12 -12 -12 -12 -12 -12 -12 -12 -12 -11 -11 -11 -11 -11 -11 -11 -11 -12 -12 -12 -12
-10 -9 -9 -11 -14 -16 -16 -15 -16 -15 -15 -15 -15 -14 -14 -14 -14 -14 -14 -14 -14 -13 -12 -11 -11 -11 -11 -13 -12 -12 -12 -12 -12 -12 -12 -12 -12 -11 -11 -11 -11 -11 -12 -12 -12 -12 -12 -12 -12
-10 -9 -11 -13 -15 -16 -16 -16 -16 -15 -15 -15 -15 -14 -14 -14 -15 -14 -15 -14 -14 -13 -12 -11 -9 -10 -11 -9 -12 -12 -11 -11 -11 -12 -12 -12 -12 -12 -12 -11 -11 -12 -12 -12 -12 -12 -12 -12 -13
-10 -9 -13 -14 -16 -16 -16 -16 -16 -16 -16 -15 -15 -14 -14 -14 -14 -15 -15 -14 -14 -14 -13 -12 -11 -10 -9 -9 -11 -10 -11 -11 -12 -11 -12 -12 -12 -12 -12 -12 -11 -12 -12 -12 -12 -12 -12 -13 -14
-10 -12 -13 -14 -16 -16 -16 -16 -16 -16 -16 -15 -15 -15 -14 -13 -15 -15 -14 -14 -14 -14 -14 -14 -13 -13 -12 -11 -11 -11 -11 -11 -11 -11 -12 -12 -12 -12 -12 -11 -11 -12 -12 -12 -12 -12 -14 -14 -15
-10 -13 -13 -13 -16 -16 -16 -16 -17 -16 -16 -15 -15 -15 -15 -13 -14 -14 -14 -14 -14 -13 -13 -12 -12 -12 -13 -13 -12 -12 -11 -12 -12 -12 -12 -12 -12 -12 -11 -12 -12 -12 -12 -12 -12 -13 -15 -15 -15
-10 -13 -14 -14 -16 -16 -15 -16 -16 -15 -15 -14 -15 -15 -15 -14 -14 -14 -13 -14 -14 -13 -13 -12 -12 -12 -11 -12 -13 -12 -12 -12 -12 -12 -12 -12 -11 -11 -11 -12 -12 -13 -13 -13 -13 -14 -16 -15 -15
-11 -13 -14 -15 -14 -15 -15 -14 -13 -15 -15 -15 -15 -15 -14 -15 -14 -14 -14 -14 -14 -13 -13 -12 -12 -11 -11 -11 -11 -12 -12 -11 -11 -11 -12 -12 -12 -12 -11 -12 -12 -14 -14 -13 -15 -16 -15 -15 -15
-11 -13 -13 -13 -14 -15 -15 -14 -14 -14 -15 -15 -15 -15 -14 -14 -14 -13 -13 -13 -13 -13 -13 -12 -11 -11 -11 -11 -11 -11 -11 -11 -12 -12 -12 -12 -12 -12 -12 -13 -14 -14 -14 -15 -16 -16 -16 -15 -15
-12 -13 -13 -13 -15 -15 -14 -14 -14 -15 -14 -14 -14 -14 -14 -14 -14 -13 -14 -13 -13 -12 -12 -11 -11 -11 -11 -11 -11 -11 -11 -11 -12 -12 -12 -12 -12 -12 -13 -13 -14 -15 -15 -16 -16 -16 -15 -15 -15
-12 -13 -14 -15 -15 -14 -14 -14 -15 -15 -14 -14 -14 -14 -14 -14 -13 -13 -13 -13 -14 -13 -12 -10 -10 -11 -11 -11 -11 -11 -11 -12 -12 -12 -12 -13 -13 -12 -13 -15 -15 -15 -16 -16 -16 -16 -15 -15 -15
-12 -14 -14 -13 -14 -15 -14 -15 -15 -14 -15 -14 -14 -13 -13 -14 -14 -14 -14 -14 -14 -12 -11 -11 -10 -10 -11 -11 -12 -12 -12 -12 -13 -13 -13 -13 -13 -13 -14 -15 -16 -16 -16 -16 -16 -15 -15 -15 -14
-13 -13 -14 -15 -15 -15 -14 -14 -14 -14 -14 -15 -14 -13 -15 -15 -15 -15 -15 -15 -14 -14 -12 -11 -11 -11 -11 -11 -12 -12 -12 -13 -13 -13 -13 -13 -14 -15 -15 -15 -15 -15 -16 -15 -15 -15 -15 -15 -15
-13 -12 -16 -16 -15 -15 -15 -15 -15 -14 -14 -14 -14 -13 -16 -16 -16 -15 -16 -15 -15 -14 -14 -14 -12 -12 -13 -13 -13 -13 -13 -13 -13 -13 -14 -15 -16 -15 -15 -15 -15 -15 -16 -16 -15 -15 -15 -15 -15
-12 -13 -14 -15 -16 -15 -15 -15 -16 -15 -14 -15 -14 -13 -16 -16 -17 -16 -16 -15 -15 -15 -14 -14 -14 -14 -14 -14 -15 -15 -15 -15 -15 -15 -16 -16 -16 -16 -15 -15 -16 -16 -16 -16 -15 -15 -15 -15 -15
-12 -13 -14 -16 -15 -14 -16 -15 -16 -15 -14 -14 -14 -14 -15 -15 -16 -16 -15 -15 -15 -15 -15 -15 -14 -14 -14 -14 -14 -14 -14 -14 -14 -14 -15 -15 -15 -15 -16 -16 -16 -16 -16 -15 -15 -15 -15 -15 -15
-14 -14 -15 -15 -16 -15 -15 -15 -16 -15 -15 -14 -14 -14 -15 -15 -15 -15 -15 -15 -14 -14 -15 -15 -15 -14 -14 -14 -14 -14 -14 -14 -15 -15 -15 -15 -15 -15 -16 -16 -16 -16 -16 -15 -16 -16 -16 -15 -16
-14 -15 -15 -15 -16 -15 -15 -14 -15 -15 -15 -15 -14 -15 -15 -15 -15 -14 -15 -14 -15 -14 -15 -15 -15 -15 -15 -15 -14 -14 -14 -14 -14 -14 -15 -15 -15 -15 -16 -16 -16 -15 -16 -16 -16 -16 -16 -16 -16
-14 -16 -14 -15 -15 -15 -15 -15 -14 -15 -15 -14 -14 -14 -15 -14 -15 -14 -14 -15 -15 -15 -15 -15 -15 -15 -15 -14 -14 -15 -14 -14 -15 -15 -15 -15 -15 -15 -15 -16 -16 -16 -16 -16 -16 -16 -16 -15 -16
-14 -15 -14 -15 -15 -14 -15 -15 -14 -15 -15 -15 -15 -14 -14 -15 -14 -15 -15 -15 -15 -14 -14 -15 -15 -15 -15 -15 -16 -15 -15 -15 -15 -15 -16 -16 -16 -15 -16 -16 -16 -16 -16 -16 -16 -16 -16 -16 -16
-14 -15 -15 -14 -14 -14 -15 -15 -13 -15 -15 -14 -14 -14 -13 -14 -14 -14 -14 -15 -14 -15 -14 -15 -15 -15 -15 -15 -15 -15 -15 -15 -15 -15 -15 -16 -16 -16 -16 -16 -16 -16 -16 -16 -16 -16 -16 -16 -16
-14 -15 -15 -15 -15 -15 -15 -14 -15 -15 -15 -14 -14 -14 -14 -13 -14 -15 -14 -14 -14 -14 -14 -14 -14 -14 -14 -14 -14 -14 -14 -14 -14 -15 -15 -15 -16 -16 -16 -15 -16 -16 -16 -16 -16 -16 -16 -16 -16
-14 -15 -15 -15 -14 -15 -15 -14 -14 -15 -15 -15 -15 -15 -14 -14 -13 -14 -14 -14 -14 -14 -14 -14 -14 -14 -14 -14 -14 -14 -14 -14 -14 -15 -15 -15 -16 -16 -16 -16 -16 -16 -16 -16 -16 -16 -16 -16 -16
-16 -15 -15 -15 -15 -15 -15 -15 -15 -15 -15 -14 -15 -15 -14 -14 -14 -14 -13 -14 -14 -14 -14 -14 -15 -14 -14 -14 -14 -14 -14 -14 -15 -15 -16 -16 -14 -16 -16 -16 -16 -16 -16 -16 -16 -16 -16 -16 -16
-15 -15 -15 -15 -15 -15 -15 -15 -15 -14 -15 -15 -14 -15 -15 -15 -15 -14 -14 -14 -14 -14 -14 -15 -15 -15 -15 -15 -15 -15 -15 -15 -15 -15 -13 -15 -16 -16 -16 -17 -17 -16 -16 -16 -16 -16 -16 -16 -17
-14 -15 -16 -15 -15 -16 -15 -15 -15 -15 -15 -15 -15 -15 -15 -15 -15 -15 -14 -14 -13 -13 -14 -15 -15 -16 -16 -16 -15 -14 -15 -15 -15 -12 -15 -16 -16 -16 -16 -17 -17 -16 -16 -16 -16 -16 -16 -17 -17
Height
5818 5814 5810 5808 5806 5798 5796 5793 5791 5791 5793 5793 5797 5800 5804 5800 5801 5804 5803 5804 5809 5811 5812 5816 5796 5807 5816 5823 5827 5830 5832 5834 5835 5836 5838 5839 5839 5840 5840 5841 5843 5843 5844 5843 5843 5843 5843 5843 5843
5813 5809 5806 5800 5798 5792 5792 5789 5789 5792 5791 5790 5792 5795 5795 5794 5794 5798 5803 5804 5802 5806 5807 5815 5799 5793 5805 5812 5818 5822 5824 5826 5828 5830 5832 5835 5836 5837 5838 5838 5838 5839 5840 5840 5840 5840 5840 5841 5841
5809 5805 5801 5796 5791 5789 5788 5786 5787 5791 5787 5783 5787 5789 5790 5789 5792 5795 5794 5794 5792 5799 5805 5805 5794 5793 5804 5809 5814 5817 5820 5823 5824 5825 5827 5830 5832 5833 5834 5833 5835 5835 5836 5836 5837 5837 5838 5838 5838
5805 5800 5796 5791 5786 5785 5785 5786 5790 5785 5784 5784 5786 5785 5786 5788 5788 5790 5791 5784 5793 5796 5797 5797 5790 5798 5798 5803 5809 5813 5814 5817 5820 5822 5824 5826 5828 5829 5829 5829 5830 5831 5831 5832 5833 5834 5834 5834 5835
5799 5796 5792 5786 5782 5781 5785 5789 5782 5783 5779 5782 5782 5778 5780 5781 5779 5781 5783 5783 5783 5790 5792 5793 5793 5795 5798 5800 5802 5807 5808 5809 5812 5815 5818 5821 5822 5823 5825 5825 5826 5826 5826 5828 5828 5830 5830 5830 5831
5798 5793 5785 5780 5779 5782 5786 5782 5776 5779 5780 5777 5775 5775 5774 5774 5777 5779 5777 5778 5777 5780 5785 5784 5785 5783 5790 5790 5792 5795 5798 5801 5804 5810 5813 5816 5817 5818 5820 5821 5821 5822 5822 5823 5825 5825 5825 5826 5827
5793 5786 5781 5778 5779 5781 5783 5779 5776 5776 5775 5769 5769 5771 5770 5769 5770 5771 5773 5775 5776 5776 5777 5778 5775 5765 5772 5781 5780 5784 5785 5793 5797 5803 5806 5809 5810 5813 5815 5815 5817 5817 5817 5819 5820 5821 5822 5822 5823
5791 5782 5778 5777 5778 5780 5779 5777 5773 5772 5769 5765 5763 5768 5765 5764 5766 5763 5769 5773 5775 5775 5771 5770 5762 5758 5769 5750 5771 5768 5775 5785 5790 5796 5801 5802 5804 5808 5811 5811 5813 5813 5813 5814 5815 5816 5817 5818 5819
5784 5779 5778 5774 5774 5778 5776 5770 5770 5766 5765 5766 5767 5762 5764 5763 5761 5763 5766 5768 5771 5771 5770 5767 5763 5761 5757 5766 5763 5768 5772 5783 5784 5791 5795 5798 5800 5803 5805 5806 5808 5808 5808 5808 5809 5811 5812 5813 5814
5782 5777 5776 5772 5773 5773 5774 5770 5766 5764 5761 5760 5765 5760 5760 5762 5763 5764 5764 5765 5766 5766 5767 5770 5767 5765 5762 5764 5769 5771 5773 5777 5782 5788 5789 5794 5794 5796 5797 5798 5799 5801 5801 5802 5804 5806 5808 5809 5811
5778 5776 5772 5770 5770 5770 5770 5766 5761 5760 5759 5759 5761 5757 5759 5758 5759 5762 5762 5761 5762 5764 5764 5763 5765 5768 5768 5768 5772 5775 5776 5778 5781 5785 5786 5789 5789 5790 5792 5794 5795 5794 5795 5796 5799 5801 5804 5806 5808
5774 5771 5769 5769 5767 5765 5765 5763 5762 5761 5763 5760 5760 5759 5757 5758 5758 5757 5758 5759 5758 5757 5761 5759 5759 5762 5763 5766 5769 5770 5774 5776 5777 5779 5782 5783 5785 5788 5789 5789 5791 5789 5791 5793 5795 5799 5802 5804 5807
5771 5768 5768 5765 5766 5763 5763 5760 5760 5762 5760 5755 5758 5758 5757 5757 5757 5755 5755 5755 5756 5752 5753 5753 5755 5758 5757 5760 5763 5765 5768 5770 5771 5774 5776 5780 5781 5782 5785 5786 5785 5786 5788 5791 5793 5797 5799 5802 5804
5769 5766 5764 5763 5765 5764 5762 5760 5759 5756 5755 5754 5750 5752 5751 5748 5749 5750 5751 5751 5752 5750 5746 5745 5749 5751 5754 5755 5757 5759 5763 5765 5767 5771 5772 5775 5776 5779 5779 5780 5781 5785 5785 5789 5792 5795 5797 5799 5802
5767 5764 5763 5761 5761 5760 5761 5761 5761 5753 5751 5752 5748 5746 5744 5742 5742 5745 5747 5747 5747 5744 5741 5741 5745 5748 5749 5753 5753 5755 5759 5761 5763 5764 5769 5771 5772 5772 5774 5777 5781 5782 5785 5787 5789 5793 5794 5796 5797
5764 5762 5762 5759 5758 5760 5760 5760 5758 5757 5753 5748 5749 5746 5741 5739 5738 5741 5744 5744 5742 5738 5737 5739 5741 5744 5745 5748 5750 5752 5753 5755 5759 5761 5763 5765 5766 5767 5770 5775 5778 5781 5783 5786 5787 5789 5790 5793 5794
5761 5760 5756 5753 5755 5755 5758 5754 5752 5752 5751 5751 5747 5741 5738 5738 5738 5739 5740 5741 5741 5740 5738 5736 5737 5740 5744 5743 5746 5749 5749 5750 5753 5755 5757 5759 5760 5765 5770 5774 5776 5779 5781 5783 5785 5786 5788 5789 5790
5759 5752 5750 5752 5756 5753 5752 5753 5751 5748 5749 5750 5746 5739 5738 5736 5738 5739 5739 5742 5742 5742 5740 5739 5737 5738 5740 5742 5744 5744 5744 5746 5749 5752 5754 5758 5763 5767 5771 5773 5774 5777 5778 5779 5782 5784 5785 5785 5784
5754 5751 5750 5751 5752 5751 5749 5747 5747 5750 5750 5749 5746 5739 5739 5740 5739 5739 5740 5743 5744 5745 5744 5744 5744 5741 5743 5744 5744 5745 5747 5748 5749 5751 5756 5759 5762 5766 5769 5770 5772 5773 5775 5776 5778 5780 5780 5780 5780
5746 5747 5749 5748 5747 5748 5748 5747 5744 5743 5748 5748 5747 5740 5742 5743 5744 5741 5742 5743 5743 5744 5744 5744 5744 5745 5746 5745 5744 5747 5749 5749 5752 5751 5755 5759 5762 5765 5765 5767 5769 5772 5772 5773 5774 5776 5776 5774 5773
5742 5745 5747 5746 5742 5746 5747 5746 5741 5742 5740 5742 5744 5740 5743 5743 5746 5744 5742 5742 5742 5742 5743 5743 5744 5745 5744 5742 5744 5746 5747 5747 5750 5753 5755 5758 5759 5762 5763 5764 5766 5767 5766 5769 5769 5770 5769 5768 5766
5740 5742 5742 5741 5740 5739 5742 5744 5743 5742 5742 5742 5742 5742 5742 5743 5742 5745 5744 5743 5741 5741 5741 5741 5741 5740 5741 5743 5744 5746 5748 5749 5752 5754 5755 5755 5755 5758 5761 5761 5760 5761 5761 5763 5763 5762 5761 5760 5758
5737 5737 5738 5738 5736 5735 5739 5739 5743 5741 5740 5739 5738 5740 5741 5743 5739 5740 5743 5741 5740 5740 5740 5740 5740 5741 5742 5743 5743 5746 5748 5749 5751 5752 5750 5751 5755 5756 5756 5755 5755 5756 5757 5758 5758 5756 5754 5751 5750
5732 5732 5733 5734 5731 5730 5736 5736 5738 5735 5738 5739 5736 5740 5742 5740 5739 5738 5740 5742 5740 5739 5739 5740 5740 5740 5740 5740 5743 5744 5744 5745 5746 5747 5749 5749 5748 5749 5750 5750 5751 5751 5752 5751 5749 5749 5747 5745 5742
5727 5728 5729 5730 5729 5731 5730 5728 5732 5731 5733 5735 5734 5737 5736 5739 5738 5737 5739 5739 5740 5740 5739 5738 5738 5738 5738 5738 5740 5741 5742 5743 5742 5742 5744 5745 5746 5747 5746 5746 5746 5745 5744 5743 5742 5740 5737 5735 5732
5721 5723 5724 5724 5726 5726 5728 5729 5730 5729 5731 5732 5730 5730 5733 5734 5732 5736 5738 5739 5738 5739 5738 5737 5737 5736 5737 5736 5737 5737 5736 5737 5738 5739 5740 5740 5741 5741 5740 5740 5739 5738 5737 5736 5735 5732 5730 5727 5724
5717 5716 5722 5720 5719 5721 5723 5725 5724 5725 5726 5728 5730 5727 5725 5728 5731 5735 5736 5735 5734 5734 5734 5734 5734 5734 5733 5733 5734 5734 5733 5733 5732 5733 5732 5735 5734 5732 5734 5733 5733 5733 5732 5730 5728 5725 5722 5718 5715
5708 5715 5715 5715 5713 5716 5719 5721 5721 5720 5721 5723 5724 5726 5726 5723 5725 5729 5731 5732 5730 5730 5730 5729 5728 5728 5727 5726 5727 5728 5730 5731 5729 5726 5726 5726 5713 5724 5726 5728 5728 5727 5725 5722 5719 5716 5712 5709 5705
5703 5704 5707 5709 5710 5711 5715 5716 5716 5716 5718 5720 5719 5722 5724 5726 5723 5720 5722 5725 5726 5726 5726 5726 5723 5723 5723 5721 5723 5722 5722 5722 5719 5722 5717 5720 5720 5720 5717 5719 5719 5718 5715 5712 5709 5705 5702 5699 5695
5696 5699 5703 5702 5708 5707 5707 5712 5713 5714 5715 5716 5715 5715 5720 5720 5722 5720 5716 5717 5719 5721 5719 5718 5718 5716 5714 5714 5714 5716 5710 5704 5713 5707 5697 5708 5709 5709 5707 5709 5708 5706 5704 5702 5699 5696 5693 5689 5685
Wind_Speed
39 39 42 44 46 49 19 5 3 5 18 25 31 31 30 33 43 46 48 41 40 40 37 37 27 43 37 32 29 29 29 29 29 28 27 26 25 23 21 18 19 18 18 19 19 19 19 18 16
37 39 41 45 45 33 10 12 7 19 28 27 26 33 27 36 40 44 45 43 48 46 46 48 44 38 38 32 34 35 32 32 33 31 31 28 24 22 17 16 16 16 17 17 17 18 18 18 16
36 39 41 40 35 11 9 2 11 22 30 34 30 30 28 33 37 40 29 41 35 50 49 48 40 24 32 34 32 32 32 34 35 33 30 26 24 23 21 20 20 19 19 19 19 17 15 16 15
35 38 38 35 18 10 1 11 20 31 31 25 28 22 29 34 32 40 44 57 44 40 42 42 34 29 38 35 41 41 34 36 35 34 35 33 30 25 23 23 23 23 22 21 19 17 15 16 17
35 36 35 28 19 14 14 14 19 28 36 35 29 32 32 32 39 38 40 44 34 46 42 40 39 41 37 36 41 42 43 41 38 37 32 29 27 25 26 24 25 24 24 22 19 18 18 20 20
32 34 31 22 10 7 20 18 29 32 31 37 36 38 40 42 40 33 18 13 17 29 39 37 38 48 43 43 44 40 42 42 38 37 30 28 27 26 27 24 24 22 22 23 22 22 23 22 21
32 35 23 14 6 6 20 27 29 29 28 28 25 25 35 39 23 23 16 17 18 23 30 33 40 39 47 46 52 48 57 43 46 36 33 32 31 28 28 25 22 20 21 17 18 23 26 26 18
29 28 12 9 10 13 23 27 31 32 35 28 12 17 6 5 5 13 17 16 18 26 29 27 37 29 44 49 32 46 40 40 35 34 34 33 32 29 23 23 27 29 24 21 23 24 23 23 17
27 17 12 9 14 14 20 30 29 28 29 26 17 16 10 19 12 14 17 16 19 23 23 27 28 34 26 21 21 27 35 51 39 40 34 33 31 27 20 18 23 26 28 29 27 24 21 20 16
22 14 13 13 11 19 20 28 29 32 28 26 24 16 13 12 11 13 16 12 9 16 19 19 18 23 27 29 14 11 20 22 39 39 37 35 34 30 29 26 30 29 32 34 28 22 12 9 11
21 9 12 12 14 24 21 20 24 27 28 23 16 7 9 4 9 15 16 17 10 13 22 17 18 18 19 21 20 14 16 9 18 24 25 25 43 36 35 38 30 28 33 30 23 16 10 13 12
22 14 11 9 14 13 10 14 17 21 25 31 19 14 15 10 16 12 15 20 22 19 21 18 16 17 20 22 17 13 14 16 14 13 16 16 24 32 41 35 25 26 26 21 14 13 15 13 12
20 11 10 13 9 12 17 18 15 16 29 21 17 14 14 17 19 17 18 21 21 21 22 19 15 18 18 17 19 19 20 17 16 17 18 26 15 15 16 22 23 26 25 17 16 15 13 11 10
19 12 10 9 9 15 22 16 18 20 20 17 11 11 10 13 16 18 17 17 15 18 20 11 14 18 23 21 22 21 22 15 17 14 14 21 20 24 18 18 22 27 20 19 15 12 11 9 12
17 11 6 1 13 18 15 12 12 21 28 18 11 14 16 14 12 12 14 13 13 13 10 12 12 16 17 22 22 18 22 22 14 12 20 20 23 13 12 15 25 22 20 15 12 11 10 11 12
10 9 6 4 8 13 12 10 20 17 25 14 13 14 12 10 9 9 9 11 13 16 10 12 15 16 17 15 15 13 13 11 13 17 22 22 13 9 10 18 23 19 13 12 11 12 12 14 14
10 6 7 11 17 29 19 14 17 18 16 23 13 15 19 7 5 5 7 3 7 9 9 6 10 12 15 14 15 15 16 14 19 19 18 13 8 8 17 22 17 13 11 13 15 16 16 16 15
14 16 13 13 16 18 14 16 14 18 20 21 19 17 16 16 3 1 3 2 10 12 12 12 2 10 14 16 19 17 14 13 16 15 16 17 15 16 16 16 14 13 15 17 17 17 17 17 15
11 10 12 16 17 14 17 17 16 14 13 15 20 17 15 16 4 2 2 2 10 11 14 14 15 20 18 16 18 20 18 18 18 17 13 11 9 5 7 12 15 15 16 17 17 19 19 18 20
7 9 8 13 14 12 13 8 16 18 11 12 19 13 10 6 9 6 8 7 8 7 10 13 14 14 14 15 14 11 11 12 10 10 9 6 4 6 3 8 15 15 17 15 18 19 21 24 27
7 8 9 22 19 14 12 6 12 19 22 13 9 8 5 3 6 4 3 6 4 5 7 9 10 10 11 12 12 10 9 10 7 5 4 4 3 6 7 4 7 12 13 19 22 23 25 30 28
11 12 14 24 22 19 19 12 10 19 19 9 3 5 6 2 1 1 2 4 4 4 5 6 8 9 9 8 7 7 7 8 3 1 3 4 3 5 8 9 10 11 12 15 18 25 29 28 33
12 16 15 17 23 21 21 21 8 19 10 14 10 11 5 4 3 1 1 5 2 2 3 5 6 7 6 5 5 5 5 4 2 2 3 6 6 9 9 10 12 14 17 20 23 26 30 33 35
18 19 18 17 17 14 12 25 13 12 12 17 17 10 5 10 7 4 3 3 4 5 4 3 4 4 4 5 6 7 9 8 6 6 6 7 10 12 13 13 16 16 20 23 27 29 30 33 36
22 20 19 18 13 7 18 24 13 13 14 19 12 12 10 5 10 7 8 8 4 4 5 5 5 6 8 8 9 8 9 8 6 7 8 6 7 7 14 15 15 18 23 24 26 28 30 29 30
20 16 21 22 16 12 16 13 11 12 16 10 12 15 13 6 2 8 10 8 8 7 7 10 11 12 13 13 13 12 12 10 9 11 9 11 12 11 13 16 18 22 25 28 29 32 30 33 36
21 25 13 21 25 15 13 13 13 16 17 16 13 13 13 11 10 5 13 13 13 11 12 15 16 16 16 16 14 15 15 17 14 15 18 20 19 16 12 18 20 24 28 31 31 32 35 38 40
30 21 24 26 25 22 16 15 17 21 15 13 15 14 15 17 18 15 10 10 14 15 18 20 18 18 20 20 18 18 17 16 21 22 23 28 29 21 15 22 25 29 31 32 33 34 36 39 41
31 29 31 28 28 27 20 20 24 21 20 24 19 16 16 15 17 22 20 17 13 14 19 21 24 22 22 24 21 20 22 24 27 27 25 21 20 27 25 29 31 32 33 34 35 37 39 40 43
32 25 28 33 26 27 27 26 24 21 22 21 13 13 18 15 15 19 23 19 13 12 17 20 23 28 28 24 26 28 34 25 28 32 16 24 30 31 35 36 34 36 36 38 38 40 41 43 45
Wind_Direction
318 321 318 320 324 321 317 218 114 166 282 264 263 275 253 254 246 242 230 236 241 247 248 251 237 203 212 224 233 239 239 246 251 252 257 263 265 267 268 262 263 265 266 268 268 271 268 265 265
321 326 326 325 327 327 281 249 4 299 288 271 267 256 257 251 256 236 233 240 240 238 244 238 240 200 205 213 226 234 238 241 244 253 257 259 261 265 262 260 264 266 265 268 270 271 270 266 263
328 330 333 333 325 323 247 88 319 276 288 278 271 265 252 245 248 251 255 226 239 240 241 253 270 199 204 220 228 237 238 241 247 249 253 258 262 259 257 258 266 270 271 268 269 269 270 267 271
332 335 335 327 336 341 242 333 308 285 288 279 266 263 259 257 257 254 260 270 250 235 246 255 254 241 210 221 229 227 232 244 254 261 260 262 262 258 256 261 272 273 270 266 264 261 258 263 264
337 338 332 326 336 356 334 304 273 271 271 280 277 262 262 257 254 255 255 257 242 226 241 250 247 249 244 227 235 238 241 242 246 251 255 257 255 252 256 266 270 271 262 254 254 252 250 258 257
338 334 337 340 347 351 300 259 257 271 292 291 281 274 266 270 267 260 275 235 236 227 237 246 240 233 240 230 227 233 237 240 237 246 250 250 247 251 258 263 269 266 255 254 245 251 256 259 264
338 339 341 1 14 327 299 286 283 293 298 308 292 271 262 265 245 249 245 270 229 234 228 249 201 193 224 206 228 223 231 221 237 236 241 248 250 254 257 257 261 257 253 255 261 268 267 273 255
333 346 342 353 336 314 278 279 286 291 289 292 240 274 326 346 305 246 251 253 244 246 251 252 226 201 169 172 217 192 216 222 217 238 243 245 248 255 262 267 263 268 267 261 261 266 274 280 254
341 344 317 344 336 280 286 297 299 291 295 283 273 306 353 317 328 247 248 243 251 260 269 283 279 285 270 219 219 232 213 222 228 233 235 246 250 247 251 283 292 269 271 258 256 266 265 267 233
344 333 317 331 283 279 264 277 286 295 286 292 322 336 325 315 309 267 275 263 245 265 273 272 274 286 289 300 265 237 214 239 217 233 232 245 235 242 240 266 309 289 272 261 263 255 228 205 207
348 341 323 329 261 273 303 285 280 278 290 297 308 308 322 293 259 269 283 276 270 264 268 275 269 269 269 274 287 264 216 225 220 228 243 267 246 253 251 257 287 296 288 257 247 223 206 203 224
343 345 328 302 289 292 297 279 276 272 297 291 271 284 288 289 258 253 265 277 283 274 265 264 268 269 255 234 249 249 263 261 239 220 248 265 279 269 266 266 285 282 256 248 193 172 208 220 234
337 326 307 319 318 329 308 293 288 308 312 251 259 268 265 260 253 261 263 271 279 272 262 260 258 266 222 220 223 241 258 267 243 275 235 279 271 277 278 267 271 251 257 184 168 193 215 230 236
331 319 323 344 333 313 317 298 319 318 334 275 317 306 309 287 280 269 268 282 279 267 262 244 251 248 213 214 232 254 255 257 283 265 266 260 259 277 286 273 262 255 185 170 181 203 219 229 233
331 334 45 10 323 340 332 334 317 311 338 336 340 339 328 305 295 278 275 278 294 297 258 265 246 237 226 231 242 252 252 245 251 247 264 278 281 278 267 266 245 192 171 179 201 214 229 225 220
329 352 300 288 358 351 328 325 313 332 343 340 334 337 345 302 293 269 273 297 326 336 320 256 250 235 234 231 229 242 231 221 253 259 263 269 262 249 261 237 179 172 181 208 213 226 218 224 243
296 292 345 334 318 306 318 298 321 321 336 327 340 343 5 12 295 275 279 285 342 339 333 266 242 228 223 227 244 237 245 257 261 265 244 230 203 192 181 177 172 179 197 218 226 221 218 233 249
277 311 312 286 291 317 298 324 318 322 351 352 347 358 18 15 352 220 237 150 107 94 85 76 134 225 228 240 250 259 266 252 223 205 155 134 151 166 174 181 187 206 218 225 224 224 234 249 267
278 304 287 258 275 273 309 305 302 311 332 359 354 15 43 61 19 148 132 126 110 110 89 87 90 92 96 100 102 93 97 103 103 107 123 135 151 158 214 214 213 220 226 226 228 241 253 263 279
305 305 297 235 273 297 289 267 293 309 340 342 328 20 34 55 102 96 111 134 80 91 88 90 88 90 99 97 95 110 123 119 120 111 127 157 169 195 230 246 242 227 222 241 256 259 274 284 285
243 273 260 241 248 252 253 235 286 299 313 335 332 355 21 352 76 111 132 140 133 88 80 77 88 86 78 71 71 74 85 97 106 122 136 184 200 242 246 231 246 262 251 254 260 271 285 278 285
244 247 240 222 246 260 252 230 244 283 289 298 17 347 334 327 261 127 352 66 71 64 58 63 52 48 47 53 69 67 72 73 87 143 219 225 213 252 256 273 286 293 306 302 285 299 298 290 287
242 239 260 258 251 261 247 250 216 262 270 259 277 249 297 278 259 195 70 30 10 86 36 17 28 23 17 21 11 0 8 10 334 268 290 299 268 258 257 275 285 293 300 292 294 294 288 295 294
248 238 258 267 257 258 239 249 224 268 291 284 285 287 283 322 231 241 192 241 296 289 301 341 359 345 344 336 325 327 328 314 309 312 319 285 284 274 277 274 275 281 288 295 297 294 292 292 290
244 242 249 257 247 150 210 226 226 263 284 308 233 272 331 354 225 226 244 267 221 245 275 284 289 282 284 282 282 290 287 281 293 282 290 265 290 269 263 278 289 299 298 306 307 296 298 302 303
245 231 242 257 243 245 228 253 257 265 275 274 297 290 308 357 10 245 257 265 251 266 281 292 288 283 280 275 282 282 275 278 292 280 273 260 269 284 299 296 302 301 303 305 300 297 291 292 293
233 236 236 245 249 235 227 253 254 238 274 266 252 286 310 322 324 252 244 257 272 279 280 285 287 279 272 267 259 256 259 265 282 274 278 264 256 245 285 298 307 301 297 298 297 295 296 299 300
233 236 227 234 245 245 239 241 237 233 221 250 254 254 271 298 302 297 282 263 258 275 282 285 283 276 266 263 260 259 266 269 280 275 269 278 257 288 307 299 299 297 297 297 300 301 303 304 303
220 225 230 232 236 246 234 236 247 255 260 260 251 255 254 277 286 296 296 287 277 281 280 276 281 274 265 264 263 262 262 262 264 273 258 275 294 298 307 307 302 298 299 302 303 305 305 304 303
223 227 236 246 236 244 247 237 235 246 262 272 266 251 268 263 265 271 282 283 285 298 288 277 266 265 255 252 262 259 256 249 264 256 291 296 307 307 308 305 303 303 304 304 306 305 305 304 304